User: anonymous   Login
Location: Skalnate Pleso
(49.1889°N, 20.2450°E)
Time: 13:34:13
(UTC+02:00)
Language:

COSMOS 2428 - Orbit

View from above orbital plane
View from above orbital plane
View from above satellite
View from above satellite

Ground track
Ground track

The orbit data is extracted from the following two-line orbital elements,

1 31792U 07029A   20218.08210582 -.00000353  00000-0 -16557-3 0  9999
2 31792  70.9073 170.8454 0010145 345.8537  14.2297 14.12307188675733
Epoch (UTC): 05 August 2020 01:58:13
Eccentricity: 0.0010145
inclination: 70.9073°
perigee height: 844 km
apogee height: 859 km
right ascension of ascending node: 170.8454°
argument of perigee: 345.8537°
revolutions per day: 14.12307188
mean anomaly at epoch: 14.2297°
orbit number at epoch: 67573

The dashed part of the orbit path shows where the satellite is in the earth's shadow,  

DLR